Regional Weather Roundup
Issued by NWS

Home | Current Version | Previous Version | Text Only | Print | Product List | Glossary Off
Versions: 1 2 3 4 5 6 7 8 9 10 11 12 13 14 15 16 17 18 19 20 21 22 23 24 25 26 27 28 29 30 31 32 33 34 35 36 37 38 39 40 41 42 43 44 45 46 47 48 49 50

000
ASUS43 KOAX 040402
RWRNE

WEATHER ROUNDUP FOR NEBRASKA
NATIONAL WEATHER SERVICE OMAHA NE
1100 PM CDT FRI JUL 03 2015

NOTES: SATELLITE DATA IS BEING USED TO AUGMENT CLOUD COVER ABOVE
       12000 FEET.
       "FAIR" INDICATES FEW OR NO CLOUDS BELOW 12,000 FEET WITH NO
       SIGNIFICANT WEATHER AND/OR OBSTRUCTIONS TO VISIBILITY.

  * THESE STATIONS DO NOT REPORT WEATHER SUCH AS RAIN...SNOW OR FOG.

NEZ001>004-019>022-054>056-040500-
NEBRASKA PANHANDLE

CITY           SKY/WX    TMP DP  RH WIND       PRES   REMARKS
SCOTTSBLUFF    CLOUDY    74  57  55 SE8       30.03R
ALLIANCE       PTCLDY    64  58  80 SE9       30.03R
CHADRON        CLEAR     67  60  78 CALM      29.97R
KIMBALL          N/A    N/A N/A N/A MISG        N/A
SIDNEY         CLOUDY    68  57  68 SE9       30.08R
$$

NEZ057>060-069>072-079>082-040500-
SOUTHWEST NEBRASKA

CITY           SKY/WX    TMP DP  RH WIND       PRES   REMARKS
NORTH PLATTE   CLEAR     67  62  84 SE8       30.03R
IMPERIAL       PTCLDY    70  60  70 SE9       30.04R
LEXINGTON      CLEAR     68  64  85 SE7       30.03R
MCCOOK         CLEAR     70  60  70 SE6       30.03R
$$

NEZ005>010-023>029-035>040-094-040500-
NORTH CENTRAL NEBRASKA

CITY           SKY/WX    TMP DP  RH WIND       PRES   REMARKS
VALENTINE      CLEAR     70  60  70 SE9       29.99R
AINSWORTH      CLEAR     68  62  80 SE7       30.01R
BROKEN BOW     CLEAR     67  61  81 SE6       30.01R
ORD            CLEAR     68  62  81 SE7       29.99R
$$

NEZ041-046>049-061>064-073>077-083>087-040500-
SOUTH CENTRAL NEBRASKA

CITY           SKY/WX    TMP DP  RH WIND       PRES   REMARKS
GRAND ISLAND   CLEAR     66  63  90 SE6       30.02R
AURORA         CLEAR     65  64  96 SE5       30.01S
HASTINGS       CLEAR     68  62  81 SE7       30.02R
KEARNEY *      CLEAR     66  61  82 SE7       30.02R
$$

NEZ011>018-030>034-042>045-040500-
NORTHEAST NEBRASKA

CITY           SKY/WX    TMP DP  RH WIND       PRES   REMARKS
NORFOLK        CLEAR     66  62  87 S7        29.99R
BLAIR          CLEAR     66  56  71 S3        30.00R
COLUMBUS *     CLEAR     63  55  77 CALM      29.98R
FREMONT        CLEAR     69  63  81 CALM      30.00R HAZE
TEKAMAH        CLEAR     62  58  86 S5        29.98R
$$

NEZ050>053-065>068-078-088>093-040500-
SOUTHEAST NEBRASKA

CITY           SKY/WX    TMP DP  RH WIND       PRES   REMARKS
LINCOLN        CLEAR     66  61  84 CALM      30.00R HAZE
OMAHA EPPLEY   CLEAR     67  60  78 CALM      29.99R
FALLS CITY     CLEAR     68  61  78 N3        29.98R
PLATTSMOUTH    CLEAR     69  53  55 CALM      30.00R
$$

NEZ044-045-051>053-067-040500-
OMAHA AREA

CITY           SKY/WX    TMP DP  RH WIND       PRES   REMARKS
OMAHA EPPLEY   CLEAR     67  60  78 CALM      29.99R
BLAIR          CLEAR     66  56  71 S3        30.00R
FREMONT        CLEAR     69  63  81 CALM      30.00R HAZE
MILLARD        CLEAR     65  60  83 CALM      29.99R
OFFUTT AFB     CLEAR     60  58  95 NE1       29.98R
PLATTSMOUTH    CLEAR     69  53  55 CALM      30.00R
$$


USA.gov is the U.S. government's official web portal to all federal, state and local government web resources and services.